STARLINK-31924 (59904 NORAD) Tracking and Keplerian Element Data

This shows tracking and keplerian element data for the satellite.

Feedback or suggestion? Click here.




ElementValue
Catalog59904
NameSTARLINK-31924
Epoch Orbit280
Epoch Day160.16667824
Epoch Year2024
RAAN174.2934
Inclination43.003
Eccentricity0.0001637
Argument of Perigee267.2871
Mean Anonmoly352.4554
Mean Motion15.79883179
Decay Rate-0.01129336
L11 59904U 24100V 24160.16667824 -.01129336 00000+0 -66137-2 0 9998
L22 59904 43.0030 174.2934 0001637 267.2871 352.4554 15.79883179 2805



Live tracking and technical data element details for STARLINK-31924 (NORAD 59904). STARLINK-31924 can be tracked NOW for your location showing map with azimuth and elevation plus other details from your city location.







IsCatalogInMostPopularTable: catalog: 59904, numindb: 8
Update: records affected: 1



GetName: 59904 STARLINK-31924

Hit Count: updated at: Thu, 25 Jul 2024 01:11:22 GMT